Location: Unspecified
(42.3650°N, 71.1030°W)
Time: 01:57:53
(UTC+00:00)

Explorer 11/Cluster Stage 4 - Pass Details

Date: 24 June 2024
Orbit: 465 x 1215 km, 28.8° (Epoch: 17 July)

Event Time Altitude Azimuth Distance (km) Brightness Sun altitude
Rises 01:01:39 0° 235° (SW) 4,079 10.5 -6.2°
Reaches altitude 10° 01:04:59 10° 224° (SW) 3,148 9.7 -6.7°
Maximum altitude 01:11:23 27° 171° (S) 2,133 8.4 -7.6°
Drops below altitude 10° 01:17:35 10° 118° (ESE) 3,044 9.0 -8.4°
Enters shadow 01:18:04 - 116° (ESE) 3,170 9.1 -8.5°
Sets 01:20:45 0° 106° (ESE) 3,922 - -8.9°
